(489246) = 2006 RY14 = 2016 AC133

Discovered at Kitt Peak on 2006-09-14 by Spacewatch.

Orbit

Orbit type: Main Belt

Note: WebGL enabled browser required.

epoch2024-03-31.0
epoch JD2460400.5
perihelion date2024-02-24.12347
perihelion JD2460364.62347
argument of perihelion (°)263.00765
ascending node (°)194.32581
inclination (°)16.30159
eccentricity0.0960819
perihelion distance (AU)2.2996802
Tisserand w.r.t. Jupiter3.4
ΔV w.r.t. Earth (km/sec)10.8
semimajor axis (AU)2.5441245
mean anomaly (°)8.71378
mean daily motion (°/day)0.24288250
aphelion distance (AU)2.789
period (years)4.06
P-vector [x]-0.11777036
P-vector [y]0.98532777
P-vector [z]0.12352862
Q-vector [x]-0.99060908
Q-vector [y]-0.10786931
Q-vector [z]-0.08401106
absolute magnitude17.05
phase slope0.15
uncertainty0
referenceMPEC 2024-C74
observations used225
oppositions10
arc length (days)6354
first opposition used2006
last opposition used2024
residual rms (arc-secs)0.66
perturbers coarse indicatorM-v
perturbers precise indicator003Ek
first observation date used2006-09-14.0
last observation date used2024-02-06.0
computer nameMPCLINUX
JD of orbit computation2457876.033859
perihelion JD uncertainty (days)7.6768E-05
argument of perihelion uncertainty (°)2.3276E-05
ascending node uncertainty (°)1.2133E-05
inclination uncertainty (°)2.8996E-06
eccentricity uncertainty 4.2341E-08
perihelion distance uncertainty (AU)9.8179E-08
Minimum Orbit Intersection Distances (in AU)
for orbit epoch: 2460200.5, reference: E2024-C74
Mercury2.01369
Venus1.62318
Earth1.37918
Mars0.839
Jupiter2.42235
Saturn6.80883
Uranus15.9721
Neptune27.3417

Observations

233 total observations over interval: 2006 09 14.17814 – 2024 02 06.297818
These data are available for download (format description).

Date (UT) J2000 RA J2000 Dec Magn Location Ref
2006 09 14.17814 22 03 55.80 +03 39 32.3   691 – Steward Observatory, Kitt Peak-Spacewatch MPS 179492
2006 09 14.19144 22 03 55.24 +03 39 23.8   691 – Steward Observatory, Kitt Peak-Spacewatch MPS 179492
2006 09 14.20473 22 03 54.71 +03 39 14.7   691 – Steward Observatory, Kitt Peak-Spacewatch MPS 179492
2006 09 16.13247 22 02 41.71 +03 17 56.4 20.9 V 691 – Steward Observatory, Kitt Peak-Spacewatch MPS 179492
2006 09 16.15588 22 02 40.81 +03 17 41.0 20.8 V 691 – Steward Observatory, Kitt Peak-Spacewatch MPS 179492
2006 09 16.17928 22 02 39.90 +03 17 25.6 21.0 V 691 – Steward Observatory, Kitt Peak-Spacewatch MPS 179492
2006 09 18.17497 22 01 28.32 +02 55 17.9 21.1 V 691 – Steward Observatory, Kitt Peak-Spacewatch MPS 179492
2006 09 18.19084 22 01 27.75 +02 55 07.9 20.7 V 691 – Steward Observatory, Kitt Peak-Spacewatch MPS 179492
2006 09 18.20672 22 01 27.18 +02 54 57.4 21.3 V 691 – Steward Observatory, Kitt Peak-Spacewatch MPS 179492
2009 04 29.37431 15 52 16.25 -04 43 23.6 20.9 V 691 – Steward Observatory, Kitt Peak-Spacewatch MPS 671806
2009 04 29.39196 15 52 15.47 -04 43 13.6 21.1 V 691 – Steward Observatory, Kitt Peak-Spacewatch MPS 671806
2009 04 29.40961 15 52 14.63 -04 43 04.0 21.3 V 691 – Steward Observatory, Kitt Peak-Spacewatch MPS 671806
2009 05 14.42869 15 40 01.31 -02 35 26.7 20.4 V 691 – Steward Observatory, Kitt Peak-Spacewatch MPS 671806
2009 05 14.44628 15 40 00.37 -02 35 18.7 20.9 V 691 – Steward Observatory, Kitt Peak-Spacewatch MPS 671806
2009 05 14.46388 15 39 59.45 -02 35 10.6 21.1 V 691 – Steward Observatory, Kitt Peak-Spacewatch MPS 671806
2009 06 15.25792 15 16 47.28 -00 13 23.7 21.4 V G96 – Mt. Lemmon Survey MPS 671806
2009 06 15.25861 15 16 47.28 -00 13 23.3 21.1 V G96 – Mt. Lemmon Survey MPS 671806
2009 06 15.26919 15 16 46.95 -00 13 22.1 21.3 V G96 – Mt. Lemmon Survey MPS 671806
2009 06 15.26990 15 16 46.95 -00 13 22.3 20.8 V G96 – Mt. Lemmon Survey MPS 671806
2009 06 15.28053 15 16 46.63 -00 13 21.5 21.1 V G96 – Mt. Lemmon Survey MPS 671806
2009 06 15.28134 15 16 46.63 -00 13 21.7 21.1 V G96 – Mt. Lemmon Survey MPS 671806
2009 06 15.29205 15 16 46.30 -00 13 20.5 21.4 V G96 – Mt. Lemmon Survey MPS 671806
2014 07 05.53694 21 54 12.912 +07 45 18.66 21.5 w F51 – Pan-STARRS 1, Haleakala MPS 671806
2014 07 05.54917 21 54 12.730 +07 45 20.34 21.5 w F51 – Pan-STARRS 1, Haleakala MPS 671806
2014 07 05.56140 21 54 12.549 +07 45 21.85 21.6 w F51 – Pan-STARRS 1, Haleakala MPS 671806
2014 07 05.57357 21 54 12.352 +07 45 23.67 21.5 w F51 – Pan-STARRS 1, Haleakala MPS 671806
2016 01 09.38222 05 46 44.037 -03 22 46.50 20.1 w F51 – Pan-STARRS 1, Haleakala MPS 668668
2016 01 09.40588 05 46 42.924 -03 22 41.49 20.2 w F51 – Pan-STARRS 1, Haleakala MPS 668668
2016 01 09.41774 05 46 42.368 -03 22 39.02 20.2 w F51 – Pan-STARRS 1, Haleakala MPS 668668
2016 01 11.35437 05 45 18.516 -03 15 20.80 20.1 w F51 – Pan-STARRS 1, Haleakala MPS 668668
2016 01 11.36698 05 45 17.954 -03 15 17.72 20.1 w F51 – Pan-STARRS 1, Haleakala MPS 668668
2016 01 11.37956 05 45 17.397 -03 15 14.69 20.1 w F51 – Pan-STARRS 1, Haleakala MPS 668668
2016 01 11.39217 05 45 16.840 -03 15 11.61 20.1 w F51 – Pan-STARRS 1, Haleakala MPS 668668
2016 01 12.27915 05 44 40.374 -03 11 30.32 20.1 w F51 – Pan-STARRS 1, Haleakala MPS 671806
2016 01 12.29279 05 44 39.785 -03 11 26.86 20.1 w F51 – Pan-STARRS 1, Haleakala MPS 671806
2016 01 12.30646 05 44 39.198 -03 11 23.39 20.2 w F51 – Pan-STARRS 1, Haleakala MPS 671806
2016 01 30.32814 05 36 51.083 -01 19 58.46 20.6 w F51 – Pan-STARRS 1, Haleakala MPS 675267
2016 01 30.35478 05 36 50.761 -01 19 46.13 20.6 w F51 – Pan-STARRS 1, Haleakala MPS 675267
2016 01 30.36809 05 36 50.595 -01 19 39.98 20.3 w F51 – Pan-STARRS 1, Haleakala MPS 675267
2016 03 05.26010 05 49 12.808 +03 38 20.75 21.2 w F51 – Pan-STARRS 1, Haleakala MPS 690178
2016 03 05.27205 05 49 13.375 +03 38 26.87 21.3 w F51 – Pan-STARRS 1, Haleakala MPS 690178
2016 03 05.28394 05 49 13.940 +03 38 32.73 21.1 w F51 – Pan-STARRS 1, Haleakala MPS 690178
2016 03 05.29584 05 49 14.508 +03 38 38.68 21.2 w F51 – Pan-STARRS 1, Haleakala MPS 690178
2017 03 23.58915 15 13 45.097 -10 05 14.01 21.7 w F51 – Pan-STARRS 1, Haleakala MPS 778842
2017 03 23.60187 15 13 44.952 -10 05 07.67 21.4 w F51 – Pan-STARRS 1, Haleakala MPS 778842
2017 03 23.62739 15 13 44.684 -10 04 54.53 21.6 w F51 – Pan-STARRS 1, Haleakala MPS 778842
2017 04 06.52198 15 09 06.427 -07 56 21.48 21.0 i F51 – Pan-STARRS 1, Haleakala MPS 785146
2017 04 06.53374 15 09 06.044 -07 56 14.51 20.7 i F51 – Pan-STARRS 1, Haleakala MPS 785146
2017 04 26.44436 14 55 29.667 -04 33 51.63 20.6 w F51 – Pan-STARRS 1, Haleakala MPS 792889
2017 04 26.45683 14 55 29.034 -04 33 44.39 20.8 w F51 – Pan-STARRS 1, Haleakala MPS 792889
2017 04 26.46931 14 55 28.407 -04 33 36.82 20.7 w F51 – Pan-STARRS 1, Haleakala MPS 792889
2017 04 26.48171 14 55 27.774 -04 33 29.53 20.7 w F51 – Pan-STARRS 1, Haleakala MPS 792889
2017 05 02.27915 14 50 40.65 -03 37 37.1 21.2 V G96 – Mt. Lemmon Survey MPS 794806
2017 05 02.28338 14 50 40.43 -03 37 34.6 20.9 V G96 – Mt. Lemmon Survey MPS 794806
2017 05 02.29483 14 50 39.85 -03 37 28.5 20.4 V G96 – Mt. Lemmon Survey MPS 794806
2017 05 17.32242 14 38 36.519 -01 34 59.05 20.9 w F51 – Pan-STARRS 1, Haleakala MPS 797904
2017 05 17.33407 14 38 35.975 -01 34 54.33 20.9 w F51 – Pan-STARRS 1, Haleakala MPS 797904
2017 05 17.34572 14 38 35.444 -01 34 49.63 20.9 w F51 – Pan-STARRS 1, Haleakala MPS 797904
2018 07 12.72905 21 26 05.10 +07 06 22.7 21.7 R D29 – Purple Mountain Observatory, XuYi Station MPS 907280
2018 07 12.74319 21 26 04.62 +07 06 23.1 21.5 R D29 – Purple Mountain Observatory, XuYi Station MPS 907280
2018 09 29.22917 20 41 35.537 -01 59 44.96 21.2 w F52 – Pan-STARRS 2, Haleakala MPS 924111
2018 09 29.24084 20 41 35.573 -01 59 51.14 21.6 w F52 – Pan-STARRS 2, Haleakala MPS 924111
2018 09 29.26432 20 41 35.654 -02 00 03.18 21.4 w F52 – Pan-STARRS 2, Haleakala MPS 924111
2019 09 30.48184 05 38 48.81 +09 04 02.1 21.1 G G96 – Mt. Lemmon Survey MPS 1056746
2019 09 30.48651 05 38 49.10 +09 03 59.9 21.4 G G96 – Mt. Lemmon Survey MPS 1056746
2019 09 30.49119 05 38 49.26 +09 03 58.0 21.3 G G96 – Mt. Lemmon Survey MPS 1056746
2019 09 30.49586 05 38 49.53 +09 03 54.8 21.2 G G96 – Mt. Lemmon Survey MPS 1056746
2019 11 05.55730 05 52 50.125 +02 50 45.65 20.5 w F52 – Pan-STARRS 2, Haleakala MPS 1081561
2019 11 05.56778 05 52 50.010 +02 50 38.78 20.7 w F52 – Pan-STARRS 2, Haleakala MPS 1081561
2019 11 05.57822 05 52 49.904 +02 50 31.94 20.7 w F52 – Pan-STARRS 2, Haleakala MPS 1081561
2019 11 05.58862 05 52 49.784 +02 50 25.09 20.8 w F52 – Pan-STARRS 2, Haleakala MPS 1081561
2019 11 09.52753 05 52 02.291 +02 07 33.69 20.0 i F52 – Pan-STARRS 2, Haleakala MPS 1081561
2019 11 09.53933 05 52 02.067 +02 07 26.19 20.3 i F52 – Pan-STARRS 2, Haleakala MPS 1081561
2019 11 09.55115 05 52 01.853 +02 07 18.30 20.4 i F52 – Pan-STARRS 2, Haleakala MPS 1081561
2019 12 19.41310 05 23 25.903 -02 51 16.85 19.9 w F52 – Pan-STARRS 2, Haleakala MPS 1100805
2019 12 19.42463 05 23 25.236 -02 51 18.42 20.0 w F52 – Pan-STARRS 2, Haleakala MPS 1100805
2019 12 19.44888 05 23 23.848 -02 51 21.72 20.0 w F52 – Pan-STARRS 2, Haleakala MPS 1100805
2019 12 23.28509 05 19 55.56 -02 57 58.7 19.9 G G96 – Mt. Lemmon Survey MPS 1105508
2019 12 23.29035 05 19 55.26 -02 57 59.0 20.1 G G96 – Mt. Lemmon Survey MPS 1105508
2019 12 23.29560 05 19 54.97 -02 57 59.3 20.0 G G96 – Mt. Lemmon Survey MPS 1105508
2019 12 23.30086 05 19 54.70 -02 57 59.6 20.0 G G96 – Mt. Lemmon Survey MPS 1105508
2019 12 28.43996 05 15 31.379 -02 59 29.57 20.0 w F52 – Pan-STARRS 2, Haleakala MPS 1113722
2019 12 28.45638 05 15 30.552 -02 59 29.02 20.1 w F52 – Pan-STARRS 2, Haleakala MPS 1113722
2019 12 28.45831 05 15 30.449 -02 59 28.99 20.1 w F52 – Pan-STARRS 2, Haleakala MPS 1113722
2019 12 28.46942 05 15 29.883 -02 59 28.66 20.0 w F52 – Pan-STARRS 2, Haleakala MPS 1113722
2019 12 28.47135 05 15 29.776 -02 59 28.55 20.2 w F52 – Pan-STARRS 2, Haleakala MPS 1113722
2019 12 28.48246 05 15 29.222 -02 59 28.28 20.0 w F52 – Pan-STARRS 2, Haleakala MPS 1113722
2019 12 28.48441 05 15 29.117 -02 59 28.18 20.0 w F52 – Pan-STARRS 2, Haleakala MPS 1113722
